PBO Station Position Time Series. Reference Frame : NAM14
Format Version,1.1.0
4-character ID,AIS6
Station name,Annette_Island_6
Begin Date, 2008-02-12
End Date, 2019-10-06
Release Date, 2019-10-08
Reference position, 55.0688827628 North Latitude, -131.5992116392 East Longitude, 32.39234 meters elevation,
Date, North (mm), East (mm), Vertical (mm), North Std. Deviation (mm), East Std. Deviation (mm),              Vertical Std. Deviation (mm), Quality,
2008-02-12,0.00, 0.00, 0.00, 4.24, 3.03, 14.46, repro,
2008-04-23,-2.07, 7.26, -0.22, 5.68, 4.08, 18.44, repro,
2008-04-30,14.80, 6.01, -0.74, 7.38, 3.96, 19.84, repro,
2008-05-01,2.63, -0.37, -4.62, 3.23, 2.08, 9.66, repro,
2008-05-15,5.21, 5.87, -17.58, 4.96, 3.15, 14.67, repro,
2008-05-16,0.13, 1.64, -11.28, 3.12, 2.02, 9.23, repro,
2008-06-20,0.33, 9.44, -1.63, 9.90, 6.65, 25.66, repro,
2008-06-21,-2.98, 5.97, -4.67, 2.40, 1.56, 7.29, repro,
2008-06-22,-3.75, 7.17, -10.24, 2.40, 1.59, 7.49, repro,
2008-06-23,-5.15, 7.40, -2.32, 2.88, 1.98, 9.51, repro,
2008-09-09,1.86, -1.57, 18.27, 8.23, 5.23, 19.47, repro,
2008-10-23,-1.68, 2.98, 13.92, 2.35, 1.54, 7.11, repro,
2008-10-25,-2.64, 2.69, 8.57, 2.34, 1.53, 7.05, repro,
2008-10-26,-0.91, 3.49, 4.02, 2.34, 1.53, 7.03, repro,
2008-10-27,4.51, -1.54, 4.42, 2.37, 1.55, 7.12, repro,
2008-10-28,7.16, -1.93, 5.02, 2.64, 1.70, 7.77, repro,
2008-10-29,0.51, -1.28, 13.75, 2.51, 1.62, 7.39, repro,
2008-10-30,-3.24, 4.69, 11.13, 2.32, 1.54, 7.05, repro,
2008-10-31,-2.34, 3.56, 2.61, 2.56, 1.66, 7.82, repro,
2008-11-01,-4.54, 3.97, 12.11, 2.37, 1.55, 7.16, repro,
2008-11-02,-5.30, 3.93, 12.13, 2.40, 1.58, 7.35, repro,
2008-11-03,1.82, -1.11, 10.33, 2.37, 1.56, 7.23, repro,
2008-11-04,2.96, -1.92, 12.65, 2.43, 1.61, 7.53, repro,
2008-11-05,3.95, -2.34, 4.15, 2.38, 1.58, 7.28, repro,
2008-11-06,3.72, -1.95, 8.22, 2.36, 1.58, 7.18, repro,
2008-11-07,5.22, -3.22, 9.82, 2.38, 1.59, 7.24, repro,
2008-11-08,-2.36, 3.29, 12.80, 2.37, 1.60, 7.31, repro,
2008-11-09,-4.63, 4.65, 10.90, 2.38, 1.56, 7.26, repro,
2008-11-10,-4.68, 4.91, 10.56, 2.37, 1.57, 7.30, repro,
2008-11-11,-2.09, 2.42, 16.19, 2.46, 1.71, 8.12, repro,
2008-11-12,-3.71, 3.57, 17.99, 2.37, 1.56, 7.15, repro,
2008-11-21,0.80, 2.70, 6.94, 2.49, 1.70, 7.89, repro,
2008-11-22,-4.94, 4.41, 14.64, 2.40, 1.61, 7.44, repro,
2008-11-23,-2.74, 3.14, 9.15, 2.46, 1.63, 7.61, repro,
2008-11-24,4.71, -2.23, 13.79, 2.43, 1.66, 7.70, repro,
2008-11-25,3.91, -2.00, 7.79, 2.35, 1.60, 7.39, repro,
2008-11-28,1.79, -1.15, 6.78, 2.39, 1.63, 7.60, repro,
2008-11-29,2.49, -2.92, 4.08, 2.41, 1.64, 7.62, repro,
2008-11-30,3.11, -0.85, 10.47, 2.39, 1.62, 7.36, repro,
2008-12-01,-2.69, 7.57, 1.51, 2.34, 1.56, 7.10, repro,
2008-12-02,-2.03, 2.45, 0.20, 9.77, 6.44, 25.47, repro,
2008-12-03,-2.77, 6.15, 0.38, 2.46, 1.62, 7.44, repro,
2008-12-04,-2.33, 5.31, -5.77, 2.51, 1.69, 8.17, repro,
2008-12-05,-1.84, 4.33, 9.25, 2.87, 1.87, 8.71, repro,
2008-12-08,-3.64, 5.69, 13.39, 4.61, 3.70, 16.35, repro,
2008-12-19,-3.07, 4.90, -0.33, 2.39, 1.54, 7.11, repro,
2008-12-20,-3.80, 4.21, -3.03, 2.32, 1.52, 6.95, repro,
2008-12-21,-4.33, 5.05, 0.20, 2.32, 1.50, 6.92, repro,
2008-12-22,-5.01, 2.16, -2.65, 2.35, 1.53, 7.09, repro,
2008-12-23,-3.96, 4.16, 3.57, 2.36, 1.55, 7.11, repro,
2008-12-24,-1.03, -0.23, 10.91, 2.33, 1.52, 6.98, repro,
2008-12-25,-1.08, 0.54, 6.16, 2.37, 1.53, 7.05, repro,
2008-12-26,-1.85, 2.06, 8.20, 2.35, 1.53, 7.04, repro,
2008-12-27,-5.11, 3.53, 6.61, 2.34, 1.53, 7.00, repro,
2008-12-28,-4.62, 4.23, -0.54, 2.43, 1.57, 7.36, repro,
2008-12-29,-3.09, 3.67, -6.99, 2.39, 1.58, 7.38, repro,
2008-12-30,-4.87, 3.66, -18.60, 2.56, 1.69, 7.76, repro,
2008-12-31,-3.03, 1.03, 4.12, 4.07, 2.72, 12.58, repro,
2009-01-02,-4.40, 5.30, 0.05, 14.59, 8.77, 58.39, repro,
2009-01-03,-6.06, 4.48, -14.97, 2.36, 1.53, 7.10, repro,
2009-01-04,-1.05, 1.83, -2.79, 2.37, 1.57, 7.28, repro,
2009-01-05,-6.11, 3.12, 1.12, 4.41, 3.26, 14.44, repro,
2009-01-06,-4.00, 4.83, 1.11, 2.38, 1.56, 7.24, repro,
2009-01-07,-4.35, 4.77, 0.10, 2.38, 1.57, 7.19, repro,
2009-01-08,-4.51, 6.29, -5.58, 2.38, 1.55, 7.10, repro,
2009-01-10,2.07, -1.04, -1.98, 2.33, 1.52, 7.06, repro,
2009-01-11,2.02, -0.83, -5.48, 2.34, 1.55, 7.12, repro,
2009-01-12,0.84, -0.01, -2.15, 2.42, 1.56, 7.25, repro,
2009-01-13,4.00, -0.58, -3.41, 2.38, 1.58, 7.32, repro,
2009-01-14,2.91, 1.35, -4.13, 2.35, 1.55, 7.18, repro,
2009-01-15,1.75, -0.57, -2.99, 2.36, 1.56, 7.21, repro,
2009-01-16,3.56, -1.23, -3.39, 2.36, 1.53, 7.10, repro,
2009-01-17,1.67, -0.17, 3.40, 2.38, 1.55, 7.19, repro,
2009-01-18,3.84, -1.20, -0.90, 2.35, 1.55, 7.12, repro,
2009-01-19,2.80, 0.07, -8.92, 2.39, 1.55, 7.15, repro,
2009-01-20,2.86, 0.42, -4.81, 2.37, 1.55, 7.17, repro,
2009-01-21,3.47, -0.22, 3.22, 2.38, 1.54, 7.12, repro,
2009-01-22,3.91, -0.68, -0.62, 2.31, 1.51, 7.01, repro,
2009-01-23,3.91, -0.47, -5.99, 2.37, 1.53, 7.09, repro,
2009-01-24,3.67, -0.15, -12.13, 2.33, 1.54, 7.08, repro,
2009-01-25,4.80, 0.18, -11.41, 2.33, 1.51, 7.01, repro,
2009-01-26,3.50, -0.65, -5.81, 2.35, 1.53, 7.12, repro,
2009-01-27,3.62, -0.84, 2.39, 2.39, 1.60, 7.33, repro,
2009-01-28,-1.30, 4.66, -3.03, 2.36, 1.55, 7.21, repro,
2009-01-29,-1.85, 2.69, -1.28, 2.39, 1.57, 7.31, repro,
2009-01-30,0.36, 0.61, 6.23, 2.38, 1.58, 7.35, repro,
2009-01-31,-2.39, 5.24, -2.53, 2.35, 1.54, 7.16, repro,
2009-02-01,2.11, 0.82, -3.54, 2.37, 1.54, 7.21, repro,
2009-02-02,7.48, -2.23, -1.68, 2.36, 1.55, 7.19, repro,
2009-02-03,3.69, -2.69, 0.89, 3.03, 1.98, 9.13, repro,
2009-02-04,-1.05, 4.68, -7.11, 2.87, 1.92, 8.93, repro,
2009-02-05,2.11, 0.57, 4.63, 2.45, 1.62, 7.36, repro,
2009-02-06,2.87, 0.18, -2.35, 2.47, 1.63, 7.43, repro,
2009-02-07,4.08, -0.30, -3.20, 2.80, 1.87, 8.83, repro,
2009-02-08,4.32, -1.48, 2.62, 2.37, 1.56, 7.25, repro,
2009-02-09,4.80, -2.31, 2.35, 2.34, 1.52, 7.06, repro,
2009-02-10,3.63, -0.44, -5.47, 2.35, 1.54, 7.14, repro,
2009-02-11,4.05, -0.76, -3.02, 2.40, 1.57, 7.25, repro,
2009-02-12,4.38, -0.39, -4.78, 2.37, 1.56, 7.15, repro,
2009-02-13,2.41, -0.57, -3.31, 2.34, 1.54, 7.11, repro,
2009-02-14,-1.50, 3.27, -0.51, 2.32, 1.53, 7.08, repro,
2009-02-15,-3.06, 4.25, -4.12, 2.31, 1.53, 7.07, repro,
2009-02-16,-3.18, 5.70, 0.24, 2.36, 1.58, 7.26, repro,
2009-02-17,-0.85, 4.91, 0.96, 2.36, 1.54, 7.11, repro,
2009-02-18,-2.29, 5.78, -5.60, 2.32, 1.53, 7.07, repro,
2009-02-19,-1.63, 5.32, -10.32, 2.33, 1.53, 7.10, repro,
2009-02-20,-1.54, 5.03, -9.33, 2.33, 1.54, 7.15, repro,
2009-02-21,-1.34, 5.19, -2.91, 2.34, 1.55, 7.15, repro,
2009-02-22,-1.65, 5.48, -7.22, 2.31, 1.54, 7.08, repro,
2009-02-23,-3.00, 4.78, -1.59, 2.36, 1.56, 7.15, repro,
2009-02-24,-1.66, 4.86, -4.68, 2.52, 1.78, 7.60, repro,
2009-02-25,-0.76, 4.80, -13.75, 196.82, 294.13, 505.80, repro,
2009-02-26,-1.98, 5.33, -3.07, 2.35, 1.55, 7.12, repro,
2009-02-27,-1.57, 6.63, -2.77, 2.36, 1.57, 7.18, repro,
2009-02-28,-3.35, 6.61, -8.80, 2.32, 1.54, 7.09, repro,
2009-03-01,-2.53, 6.05, -0.73, 2.35, 1.54, 7.13, repro,
2009-03-02,-2.43, 3.32, 1.95, 2.33, 1.54, 7.16, repro,
2009-03-03,-2.59, 4.81, -6.91, 2.42, 1.62, 7.53, repro,
2009-03-04,-1.96, 6.00, -6.70, 2.31, 1.54, 7.10, repro,
2009-03-05,-1.23, 6.19, -7.46, 2.35, 1.57, 7.20, repro,
2009-03-06,-1.73, 7.12, -0.19, 2.37, 1.59, 7.36, repro,
2009-03-07,-0.77, 5.97, -5.15, 2.32, 1.55, 7.19, repro,
2009-03-08,-0.95, 7.36, -8.41, 2.30, 1.52, 7.01, repro,
2009-03-09,-0.86, 7.65, -12.96, 2.60, 1.71, 8.08, repro,
2009-03-10,-1.87, 7.41, -9.31, 2.36, 1.59, 7.22, repro,
2009-03-11,-1.49, 7.49, -12.07, 2.38, 1.60, 7.31, repro,
2009-03-12,-2.31, 4.83, -9.66, 2.32, 1.55, 7.13, repro,
2009-03-13,3.15, -2.03, 6.47, 2.32, 1.55, 7.14, repro,
2009-03-14,2.41, -1.73, 5.53, 2.33, 1.54, 7.12, repro,
2009-03-15,-2.47, 5.92, 0.54, 2.34, 1.56, 7.21, repro,
2009-03-16,-1.32, 5.65, 2.48, 2.33, 1.55, 7.15, repro,
2009-03-17,-1.29, 5.54, -10.03, 2.34, 1.58, 7.27, repro,
2009-03-18,-3.09, 5.09, -6.91, 2.37, 1.58, 7.27, repro,
2009-03-19,-4.71, 5.35, -8.72, 2.32, 1.54, 7.13, repro,
2009-03-20,-2.02, 6.82, -8.91, 2.33, 1.55, 7.17, repro,
2009-03-21,-2.68, 5.20, -6.74, 2.34, 1.56, 7.21, repro,
2009-03-22,-0.61, 6.87, -3.74, 2.34, 1.57, 7.22, repro,
2009-03-23,-2.83, 4.47, -5.03, 2.35, 1.54, 7.16, repro,
2009-03-24,-2.60, 5.25, -4.21, 2.35, 1.55, 7.20, repro,
2009-03-25,-2.09, 6.04, -7.40, 2.32, 1.56, 7.14, repro,
2009-03-26,-0.72, 5.46, -8.65, 2.39, 1.58, 7.30, repro,
2009-03-27,-2.04, 6.56, -1.53, 2.42, 1.56, 7.28, repro,
2009-03-28,-0.17, 5.12, -4.64, 2.35, 1.55, 7.11, repro,
2009-03-29,-2.37, 5.64, -4.98, 2.37, 1.57, 7.22, repro,
2009-03-30,1.56, 0.86, -3.47, 2.37, 1.57, 7.20, repro,
2009-03-31,4.68, -0.16, -0.61, 2.35, 1.54, 7.12, repro,
2009-04-01,2.78, 1.15, -5.76, 2.39, 1.56, 7.23, repro,
2009-04-02,-0.56, 4.25, -0.78, 2.43, 1.58, 7.29, repro,
2009-04-03,0.57, 5.11, 1.15, 2.41, 1.57, 7.20, repro,
2009-04-04,-2.47, 4.54, -8.04, 2.38, 1.56, 7.17, repro,
2009-04-05,6.09, -0.21, -4.19, 2.38, 1.57, 7.26, repro,
2009-04-06,4.25, 0.64, -12.10, 2.37, 1.56, 7.21, repro,
2009-04-07,4.66, 0.04, -9.13, 2.40, 1.58, 7.36, repro,
2009-04-08,6.28, -0.85, -0.96, 2.38, 1.57, 7.25, repro,
2009-04-09,3.36, 0.61, -6.34, 2.35, 1.55, 7.15, repro,
2009-04-10,2.85, 0.31, -9.62, 2.36, 1.55, 7.15, repro,
2009-04-11,2.27, 0.36, -4.00, 2.36, 1.57, 7.25, repro,
2009-04-12,4.33, -1.11, 0.31, 2.43, 1.58, 7.32, repro,
2009-04-13,2.96, 1.52, -3.50, 2.36, 1.57, 7.21, repro,
2009-04-14,-1.91, 7.26, -6.47, 2.37, 1.57, 7.23, repro,
2009-04-15,-1.57, 7.68, -12.01, 2.37, 1.57, 7.23, repro,
2009-04-16,-0.71, 5.51, -10.12, 2.36, 1.58, 7.24, repro,
2009-04-17,4.66, 0.66, -7.30, 2.42, 1.58, 7.42, repro,
2009-04-18,5.61, 0.14, -10.79, 2.40, 1.61, 7.42, repro,
2009-04-19,4.19, -0.48, -4.90, 2.38, 1.57, 7.25, repro,
2009-04-20,4.50, 0.63, -9.97, 2.43, 1.62, 7.48, repro,
2009-04-21,4.35, -1.41, -8.12, 2.38, 1.59, 7.25, repro,
2009-04-22,6.24, -0.83, -1.08, 2.37, 1.57, 7.26, repro,
2009-04-23,1.78, 4.44, -4.28, 2.40, 1.59, 7.33, repro,
2009-04-24,-1.84, 5.40, -3.67, 2.39, 1.57, 7.33, repro,
2009-04-25,-0.50, 6.51, -6.65, 2.36, 1.57, 7.23, repro,
2009-04-26,-0.81, 6.38, -8.43, 2.36, 1.57, 7.25, repro,
2009-04-27,2.36, 6.21, -7.44, 2.35, 1.57, 7.22, repro,
2009-04-28,0.66, 5.00, -16.52, 2.36, 1.56, 7.26, repro,
2009-04-29,0.00, 6.06, -10.65, 3.56, 2.50, 10.58, repro,
2009-04-30,-0.58, 7.57, -4.26, 2.38, 1.61, 7.39, repro,
2009-05-01,-0.32, 5.95, -7.10, 2.35, 1.55, 7.18, repro,
2009-05-02,-0.98, 6.72, -5.26, 2.33, 1.56, 7.17, repro,
2009-05-03,-1.40, 4.76, -2.99, 2.33, 1.55, 7.20, repro,
2009-05-04,-0.87, 5.38, 1.00, 2.35, 1.56, 7.25, repro,
2009-05-05,-0.53, 5.02, 1.94, 2.32, 1.54, 7.15, repro,
2009-05-06,-1.02, 5.92, -0.28, 2.35, 1.56, 7.24, repro,
2009-05-07,-0.40, 6.33, 1.51, 2.37, 1.55, 7.27, repro,
2009-05-08,1.13, 6.12, -4.99, 2.32, 1.54, 7.13, repro,
2009-05-09,0.54, 6.51, -6.48, 2.35, 1.55, 7.22, repro,
2009-05-10,0.30, 4.90, -0.20, 2.31, 1.54, 7.13, repro,
2009-05-11,-0.68, 4.90, -5.13, 2.41, 1.61, 7.48, repro,
2009-05-12,-1.52, 6.06, 0.05, 2.41, 1.57, 7.34, repro,
2009-05-13,-1.34, 6.55, -6.69, 2.33, 1.54, 7.19, repro,
2009-05-14,-1.00, 5.41, 0.56, 2.35, 1.54, 7.21, repro,
2009-05-15,-1.34, 6.38, 0.02, 2.35, 1.53, 7.21, repro,
2009-05-16,-1.79, 7.11, 1.42, 2.35, 1.56, 7.30, repro,
2009-05-17,-3.53, 5.38, -8.52, 2.39, 1.56, 7.33, repro,
2009-05-18,-1.45, 5.94, -2.19, 2.34, 1.54, 7.20, repro,
2009-05-19,0.28, 5.18, -2.64, 2.99, 1.98, 9.04, repro,
2009-05-20,-0.40, 5.47, -2.44, 2.37, 1.54, 7.33, repro,
2009-05-21,0.41, 5.94, -0.92, 2.34, 1.55, 7.25, repro,
2009-05-22,0.18, 5.94, -3.65, 2.32, 1.54, 7.18, repro,
2009-05-23,-0.40, 5.89, -9.88, 2.34, 1.54, 7.23, repro,
2009-05-24,-1.14, 4.88, -7.13, 2.34, 1.55, 7.22, repro,
2009-05-25,-1.69, 5.83, -2.11, 2.38, 1.54, 7.28, repro,
2009-05-26,-0.87, 6.41, -1.20, 2.37, 1.54, 7.29, repro,
2009-05-27,-2.47, 5.18, -2.16, 2.87, 1.86, 8.87, repro,
2009-05-28,-0.56, 5.63, 0.49, 2.54, 1.65, 8.00, repro,
2009-05-29,-2.60, 5.13, 4.42, 2.38, 1.54, 7.28, repro,
2009-05-30,-0.03, 5.89, -4.33, 2.38, 1.59, 7.30, repro,
2009-05-31,-1.89, 6.91, -9.18, 2.35, 1.56, 7.31, repro,
2009-06-01,-0.36, 5.82, -1.30, 2.33, 1.54, 7.26, repro,
2009-06-02,0.47, 5.00, -4.93, 2.52, 1.66, 7.95, repro,
2009-06-03,-0.10, 6.15, -9.57, 2.46, 1.61, 7.65, repro,
2009-06-04,-0.09, 4.89, -5.69, 2.36, 1.56, 7.32, repro,
2009-06-05,-1.33, 5.40, -3.28, 2.44, 1.59, 7.63, repro,
2009-06-06,-0.26, 4.52, 4.38, 2.39, 1.56, 7.42, repro,
2009-06-07,-0.69, 5.32, -1.62, 2.35, 1.56, 7.33, repro,
2009-06-08,-2.00, 4.74, -1.65, 2.35, 1.57, 7.33, repro,
2009-06-09,-2.39, 5.38, -1.05, 2.39, 1.57, 7.39, repro,
2009-06-10,-0.93, 4.40, -1.51, 2.35, 1.55, 7.24, repro,
2009-06-11,-1.69, 5.26, -3.33, 2.57, 1.69, 8.05, repro,
2009-06-12,-4.52, 4.87, -5.85, 2.83, 1.95, 9.01, repro,
2009-06-13,-2.12, 5.40, -0.97, 2.50, 1.68, 7.87, repro,
2009-06-14,-1.00, 4.15, 1.06, 2.65, 1.84, 8.72, repro,
2009-06-15,-3.55, 4.69, -0.10, 2.56, 1.71, 7.97, repro,
2009-06-16,-3.95, 4.51, 5.26, 2.60, 1.74, 8.24, repro,
2009-06-17,-2.45, 4.79, 2.91, 2.36, 1.57, 7.34, repro,
2009-06-18,-2.33, 4.26, 1.72, 2.36, 1.57, 7.35, repro,
2009-06-19,-1.69, 4.56, -8.83, 2.44, 1.62, 7.67, repro,
2009-06-20,-3.33, 4.57, 4.96, 2.41, 1.60, 7.59, repro,
2009-06-21,-1.21, 3.96, 2.18, 2.35, 1.55, 7.26, repro,
2009-06-22,-2.12, 4.49, 7.31, 2.36, 1.56, 7.35, repro,
2009-06-23,-5.16, 5.71, 2.48, 2.42, 1.59, 7.56, repro,
2009-06-24,-3.45, 4.91, 6.00, 2.41, 1.59, 7.61, repro,
2009-06-25,-4.37, 5.34, 7.09, 2.37, 1.56, 7.34, repro,
2009-06-26,-3.17, 4.57, 2.10, 2.39, 1.58, 7.50, repro,
2009-06-27,-0.17, 1.16, 8.20, 2.40, 1.60, 7.54, repro,
2009-06-28,2.15, -3.46, -0.46, 2.40, 1.58, 7.53, repro,
2009-06-29,4.49, -0.01, 4.84, 2.40, 1.59, 7.50, repro,
2009-06-30,3.95, -0.91, -0.28, 2.40, 1.58, 7.45, repro,
2009-07-01,3.33, -1.18, -4.34, 2.38, 1.59, 7.46, repro,
2009-07-02,-2.05, 2.71, 7.90, 4.23, 3.05, 14.44, repro,
2009-07-03,-3.14, 5.08, -0.83, 2.36, 1.56, 7.32, repro,
2009-07-04,-3.19, 5.15, -0.90, 2.37, 1.57, 7.37, repro,
2009-07-05,-1.91, 6.02, 5.74, 2.40, 1.58, 7.46, repro,
2009-07-06,-4.20, 5.18, 7.64, 2.38, 1.57, 7.35, repro,
2009-07-07,-4.50, 5.24, 1.80, 2.39, 1.56, 7.38, repro,
2009-07-08,-1.70, 4.74, 6.04, 2.36, 1.56, 7.32, repro,
2009-07-09,-2.51, 5.52, 0.06, 2.40, 1.59, 7.43, repro,
2009-07-10,-2.92, 4.45, 1.72, 2.38, 1.58, 7.39, repro,
2009-07-11,-4.60, 5.86, 3.00, 2.38, 1.57, 7.39, repro,
2009-07-12,-3.34, 4.89, 0.29, 2.38, 1.56, 7.36, repro,
2009-07-13,-2.68, 5.20, 0.72, 2.37, 1.57, 7.37, repro,
2009-07-14,-2.35, 5.64, -2.24, 2.40, 1.58, 7.43, repro,
2009-07-15,-3.03, 5.44, -0.47, 2.36, 1.55, 7.28, repro,
2009-07-16,-4.63, 5.10, 0.58, 2.38, 1.57, 7.36, repro,
2009-07-17,-3.96, 5.03, 2.94, 2.64, 1.72, 8.27, repro,
2009-07-18,1.12, -5.70, 3.82, 11.60, 15.70, 25.99, repro,
2009-07-19,-3.66, 4.59, -4.81, 2.36, 1.58, 7.43, repro,
2009-07-20,-5.90, 57.03, 53.95, 66.31, 93.01, 154.83, repro,
2009-07-21,-1.72, 5.23, 5.71, 2.40, 1.59, 7.52, repro,
2009-07-22,-5.17, 5.60, 7.84, 2.39, 1.57, 7.44, repro,
2009-07-23,-3.60, 5.61, 17.67, 2.38, 1.56, 7.41, repro,
2009-07-24,-3.85, 4.15, 2.57, 2.40, 1.62, 7.79, repro,
2009-07-25,-2.48, 4.62, 6.70, 2.46, 1.62, 7.57, repro,
2009-07-26,-4.79, 4.74, 2.64, 5.79, 4.35, 17.16, repro,
2009-07-27,-3.25, 6.45, -3.54, 2.38, 1.59, 7.48, repro,
2009-07-28,-3.18, 5.53, 4.67, 2.38, 1.58, 7.44, repro,
2009-07-29,-2.65, 3.79, 2.66, 2.37, 1.58, 7.47, repro,
2009-07-30,-5.29, 6.10, 2.48, 2.41, 1.60, 7.51, repro,
2009-07-31,-3.57, 4.28, 5.48, 2.37, 1.56, 7.34, repro,
2009-08-01,-4.58, 4.18, 2.93, 2.41, 1.60, 7.54, repro,
2009-08-02,-4.78, 5.09, 5.97, 2.43, 1.63, 7.67, repro,
2009-08-03,-5.06, 6.19, -0.74, 2.53, 1.66, 7.99, repro,
2009-08-04,-4.55, 4.29, 2.99, 2.67, 1.81, 8.48, repro,
2009-08-05,4.04, -5.24, -16.14, 11.95, 15.32, 25.62, repro,
2009-08-06,-8.56, 10.07, -8.94, 18.78, 24.20, 39.17, repro,
2009-08-07,-5.76, 5.84, 6.54, 2.42, 1.58, 7.54, repro,
2009-08-08,-6.71, 5.08, 6.55, 2.43, 1.61, 7.69, repro,
2009-08-09,-5.73, 5.00, 6.77, 2.40, 1.59, 7.51, repro,
2009-08-10,-5.64, 5.01, 8.35, 2.43, 1.62, 7.62, repro,
2009-08-11,-5.76, 5.45, 10.46, 2.39, 1.55, 7.40, repro,
2009-08-12,-3.47, 4.49, 2.67, 2.38, 1.56, 7.35, repro,
2009-08-13,-3.70, 5.11, 6.19, 2.37, 1.58, 7.42, repro,
2009-08-14,-4.60, 4.59, 4.37, 2.38, 1.58, 7.42, repro,
2009-08-15,-7.10, 4.51, 5.95, 2.38, 1.57, 7.40, repro,
2009-08-16,-4.95, 4.55, 8.15, 2.37, 1.58, 7.33, repro,
2009-08-17,-4.74, 5.91, 11.05, 2.40, 1.57, 7.47, repro,
2009-08-18,-6.86, 5.71, 9.70, 2.40, 1.58, 7.51, repro,
2009-08-19,-3.00, 4.94, 7.02, 2.43, 1.64, 7.61, repro,
2009-08-20,-5.68, 3.70, 9.51, 2.43, 1.61, 7.61, repro,
2009-08-21,-3.16, 5.85, 6.22, 2.46, 1.61, 7.69, repro,
2009-08-22,-5.66, 4.02, 10.10, 2.45, 1.62, 7.69, repro,
2009-08-23,-3.48, 4.87, 14.37, 2.43, 1.59, 7.60, repro,
2009-08-24,-5.34, 5.33, 14.06, 2.43, 1.60, 7.60, repro,
2009-08-25,1.41, 1.99, 14.90, 2.47, 1.62, 7.73, repro,
2009-08-26,2.06, -1.02, 12.36, 2.45, 1.60, 7.64, repro,
2009-08-27,4.34, 0.15, 2.94, 2.43, 1.58, 7.53, repro,
2009-08-28,-0.12, -0.82, 7.14, 2.42, 1.58, 7.58, repro,
2009-08-29,2.06, -0.88, 2.72, 2.41, 1.56, 7.52, repro,
2009-08-30,2.37, 1.07, -0.25, 2.40, 1.58, 7.54, repro,
2009-08-31,0.87, -0.70, 5.41, 2.38, 1.57, 7.51, repro,
2009-09-01,-4.63, 6.12, 10.39, 2.45, 1.66, 7.85, repro,
2009-09-02,-4.10, 4.27, 11.71, 2.50, 1.67, 7.77, repro,
2009-09-09,-9.95, 0.93, -1.58, 7.07, 5.06, 26.17, repro,
2009-09-10,-0.58, 3.76, 10.26, 2.39, 1.60, 7.51, repro,
2009-09-11,4.00, -1.36, 14.44, 2.40, 1.61, 7.54, repro,
2009-09-12,-0.56, 1.75, 12.01, 2.38, 1.57, 7.42, repro,
2009-09-13,4.04, -0.73, 19.15, 2.40, 1.58, 7.43, repro,
2009-09-14,1.99, -2.32, 18.61, 2.39, 1.55, 7.37, repro,
2009-09-15,-0.21, -0.04, 12.52, 2.41, 1.57, 7.47, repro,
2009-09-16,1.44, -1.48, 9.91, 2.59, 1.69, 8.15, repro,
2009-09-17,4.21, -0.54, 2.55, 2.44, 1.59, 7.60, repro,
2009-09-18,1.72, -1.06, 13.55, 2.43, 1.59, 7.70, repro,
2009-09-19,0.14, -0.97, 13.06, 2.39, 1.57, 7.41, repro,
2009-09-20,4.28, 0.03, 11.10, 3.28, 2.12, 10.43, repro,
2009-09-21,-2.83, -4.30, -6.89, 6.72, 5.25, 24.38, repro,
2009-09-22,3.67, -1.06, 8.98, 2.61, 1.74, 8.21, repro,
2009-09-23,4.22, -2.62, 7.36, 2.64, 1.78, 8.36, repro,
2009-09-24,2.29, -3.59, 16.18, 2.59, 1.70, 8.07, repro,
2009-09-25,-1.30, -1.45, 13.31, 2.77, 1.89, 9.27, repro,
2009-09-26,0.52, 0.40, 17.66, 3.33, 2.28, 9.97, repro,
2009-09-27,0.23, 1.30, 5.09, 3.25, 2.08, 9.97, repro,
2009-09-28,1.27, 1.80, 9.14, 2.70, 1.78, 8.39, repro,
2009-09-29,-4.42, 5.78, 10.56, 2.64, 1.73, 8.26, repro,
2009-09-30,-3.60, 4.75, 10.62, 3.35, 2.32, 10.59, repro,
2009-10-01,-3.58, 4.58, -1.23, 2.72, 1.85, 8.71, repro,
2009-10-02,-5.92, 5.12, 3.08, 2.60, 1.68, 8.08, repro,
2009-10-03,-2.54, 4.30, 10.03, 2.41, 1.58, 7.71, repro,
2009-10-04,-1.53, 4.32, 10.73, 2.43, 1.58, 7.70, repro,
2009-10-05,-3.71, 5.49, 8.18, 2.39, 1.55, 7.40, repro,
2009-10-06,-6.05, 4.94, 7.14, 2.41, 1.57, 7.47, repro,
2009-10-07,-4.49, 4.24, 4.68, 2.37, 1.55, 7.40, repro,
2009-10-08,-2.88, 3.65, 10.14, 2.46, 1.64, 7.56, repro,
2009-10-09,-8.45, 5.48, -6.84, 10.00, 6.38, 34.30, repro,
2009-10-10,-0.77, 5.81, 12.20, 2.39, 1.56, 7.50, repro,
2009-10-11,-3.93, 4.89, 11.35, 2.38, 1.56, 7.40, repro,
2009-10-12,-4.58, 3.48, 10.44, 2.38, 1.56, 7.39, repro,
2009-10-13,-3.53, 3.17, 8.48, 2.36, 1.57, 7.37, repro,
2009-10-14,-7.87, 2.12, 21.26, 2.39, 1.55, 7.40, repro,
2009-10-15,-3.02, 0.01, 13.54, 2.46, 1.62, 7.76, repro,
2009-10-16,-0.34, -1.91, 8.91, 2.41, 1.62, 7.82, repro,
2009-10-17,1.07, -3.08, 7.39, 2.42, 1.59, 7.69, repro,
2009-10-18,0.30, -3.17, 4.73, 2.41, 1.59, 7.67, repro,
2009-10-19,1.15, -3.75, 14.02, 2.44, 1.63, 7.82, repro,
2009-10-20,0.21, -2.18, 9.95, 2.47, 1.62, 7.87, repro,
2009-10-21,2.06, -2.29, 8.49, 2.41, 1.59, 7.60, repro,
2009-10-22,2.84, -2.91, 11.71, 2.47, 1.66, 7.84, repro,
2009-10-23,2.53, -1.64, 4.09, 2.42, 1.60, 7.71, repro,
2009-10-24,2.02, -1.36, 10.51, 2.45, 1.62, 7.75, repro,
2009-10-25,2.66, -1.59, 17.97, 2.44, 1.63, 7.82, repro,
2009-10-26,0.93, -1.50, 14.18, 2.49, 1.66, 8.01, repro,
2009-10-27,1.89, -1.67, 18.10, 2.40, 1.59, 7.53, repro,
2009-10-28,4.40, -0.65, 4.97, 2.48, 1.63, 7.72, repro,
2009-10-29,0.27, -1.70, 16.24, 2.42, 1.59, 7.59, repro,
2009-10-30,-0.58, -0.06, 14.83, 2.42, 1.61, 7.67, repro,
2009-10-31,-3.01, 4.73, 20.73, 2.62, 1.75, 8.07, repro,
2009-11-01,-4.73, 6.83, 9.10, 2.41, 1.59, 7.55, repro,
2009-11-02,-4.97, 5.74, 7.24, 2.52, 1.66, 7.89, repro,
2009-11-03,-3.56, 7.29, 2.84, 2.39, 1.59, 7.50, repro,
2009-11-04,-0.64, 4.65, 12.11, 2.43, 1.62, 7.85, repro,
2009-11-05,3.75, -1.96, 13.17, 2.40, 1.63, 7.76, repro,
2009-11-06,2.59, -2.26, 24.29, 2.42, 1.61, 7.74, repro,
2009-11-07,5.48, -2.50, 21.96, 2.37, 1.57, 7.49, repro,
2009-11-08,4.76, -0.01, 15.79, 2.39, 1.59, 7.60, repro,
2009-11-09,4.06, -1.02, 6.20, 2.40, 1.61, 7.68, repro,
2009-11-10,2.80, -1.31, 10.03, 2.39, 1.62, 7.70, repro,
2009-11-11,3.56, -0.87, 11.91, 2.39, 1.58, 7.58, repro,
2009-11-12,3.77, -1.15, 18.28, 2.49, 1.65, 7.94, repro,
2009-11-13,-4.40, 5.37, 15.02, 2.51, 1.68, 7.99, repro,
2009-11-14,1.34, 0.16, 19.95, 2.42, 1.62, 7.76, repro,
2009-11-15,-3.68, 5.36, 13.18, 2.40, 1.61, 7.68, repro,
2009-11-16,2.06, 1.55, 13.59, 2.39, 1.62, 7.70, repro,
2009-11-17,4.36, -1.48, 23.62, 2.46, 1.62, 7.82, repro,
2009-11-18,4.08, -1.57, 16.16, 2.46, 1.62, 7.82, repro,
2009-11-19,-4.03, 4.77, 17.27, 2.37, 1.59, 7.50, repro,
2009-11-20,-3.54, 4.03, 9.19, 2.38, 1.60, 7.62, repro,
2009-11-21,-2.50, 5.02, 8.39, 2.38, 1.60, 7.58, repro,
2009-11-22,-3.04, 4.73, 10.15, 2.40, 1.62, 7.70, repro,
2009-11-23,0.15, 2.25, 8.00, 2.39, 1.57, 7.45, repro,
2009-11-24,1.33, -1.14, 7.46, 2.39, 1.58, 7.46, repro,
2009-11-25,1.46, -1.19, 6.58, 2.36, 1.60, 7.50, repro,
2009-11-26,-1.37, 2.63, 6.27, 2.42, 1.61, 7.67, repro,
2009-11-27,-3.31, 5.85, 7.08, 2.40, 1.59, 7.59, repro,
2009-11-28,-0.60, 3.85, 7.91, 2.71, 1.82, 8.81, repro,
2009-11-30,-2.88, 4.35, -0.40, 3.97, 2.67, 13.30, repro,
2009-12-01,-3.94, 6.86, -2.51, 2.97, 1.93, 9.09, repro,
2009-12-02,-1.88, 6.37, -3.09, 2.82, 1.94, 9.21, repro,
2009-12-03,-3.45, 6.43, 2.26, 2.39, 1.53, 7.31, repro,
2009-12-04,-3.37, 3.99, -3.63, 2.36, 1.51, 7.18, repro,
2009-12-05,-1.86, 5.97, -6.78, 2.34, 1.50, 7.09, repro,
2009-12-06,-3.49, 6.45, -4.84, 2.35, 1.50, 7.17, repro,
2009-12-07,-3.00, 6.46, 3.87, 2.34, 1.51, 7.16, repro,
2009-12-08,-2.14, 4.82, 3.26, 2.37, 1.54, 7.39, repro,
2009-12-09,-2.14, 5.81, 1.03, 2.56, 1.64, 8.12, repro,
2009-12-10,-4.68, 6.06, 5.57, 2.41, 1.53, 7.31, repro,
2009-12-11,-4.78, 5.70, 1.03, 2.38, 1.53, 7.40, repro,
2009-12-12,-1.99, 5.64, 1.69, 2.39, 1.56, 7.56, repro,
2009-12-13,-2.65, 5.02, 3.54, 2.35, 1.52, 7.23, repro,
2009-12-14,-4.06, 5.15, 0.92, 2.34, 1.50, 7.11, repro,
2009-12-15,-4.77, 5.02, 4.56, 2.35, 1.50, 7.12, repro,
2009-12-16,-5.45, 6.07, 3.71, 2.36, 1.51, 7.19, repro,
2009-12-17,-3.19, 3.73, 0.34, 2.35, 1.51, 7.15, repro,
2009-12-18,2.00, 2.57, -6.84, 2.37, 1.52, 7.23, repro,
2009-12-19,-4.12, 5.76, -2.58, 2.38, 1.55, 7.53, repro,
2009-12-20,-2.48, 4.87, 3.95, 2.39, 1.54, 7.40, repro,
2009-12-21,-4.11, 4.87, 0.52, 2.39, 1.53, 7.37, repro,
2009-12-22,-3.73, 6.51, -2.22, 2.36, 1.53, 7.29, repro,
2009-12-23,-4.77, 6.12, -8.61, 2.40, 1.56, 7.45, repro,
2009-12-24,-4.17, 7.17, -7.83, 2.33, 1.51, 7.16, repro,
2009-12-25,-2.06, 3.61, -4.00, 2.32, 1.51, 7.15, repro,
2009-12-26,4.10, -2.50, 1.24, 2.38, 1.54, 7.36, repro,
2009-12-27,4.02, -1.85, -1.81, 2.38, 1.54, 7.36, repro,
2009-12-28,3.63, -2.22, -5.21, 2.35, 1.52, 7.22, repro,
2009-12-29,2.81, -0.70, -4.70, 2.35, 1.53, 7.32, repro,
2009-12-30,4.66, -1.72, -0.09, 2.31, 1.50, 7.08, repro,
2009-12-31,3.70, -1.34, 0.63, 2.37, 1.55, 7.27, repro,
2010-01-01,-1.84, 3.21, 6.10, 3.19, 1.95, 9.32, repro,
2010-01-02,-2.20, 4.86, -0.85, 2.33, 1.51, 7.13, repro,
2010-01-03,-2.30, 4.51, -8.01, 2.42, 1.58, 7.58, repro,
2010-01-04,-2.17, 5.24, -2.47, 2.32, 1.52, 7.14, repro,
2010-01-05,-0.87, 4.03, -3.83, 2.32, 1.54, 7.30, repro,
2010-01-06,-4.26, 5.20, -1.39, 2.33, 1.52, 7.18, repro,
2010-01-07,-4.92, 3.92, 0.87, 2.45, 1.62, 7.47, repro,
2010-01-08,6.74, -2.07, -4.03, 2.38, 1.54, 7.25, repro,